Regional Weather Roundup
Issued by NWS Newport/Morehead, NC

Current Version | Previous Version | Graphics & Text | Print | Product List | Glossary Off
Versions: 1 2 3 4 5 6 7 8 9 10 11 12 13 14 15 16 17 18 19 20 21 22 23 24 25 26 27 28 29 30 31 32 33 34 35 36 37 38 39 40 41 42 43 44 45 46 47 48 49 50

000
ASUS42 KMHX 071913
RWRMHX
WEATHER ROUNDUP FOR EASTERN NORTH CAROLINA
NATIONAL WEATHER SERVICE NEWPORT/MOREHEAD CITY NC
200 PM EST SUN FEB 07 2016

NOTE: "FAIR" INDICATES FEW OR NO CLOUDS BELOW 12,000 FEET
WITH NO SIGNIFICANT WEATHER AND/OR OBSTRUCTIONS TO VISIBILITY

NCZ015>017-031-032-045>047-102-103-072000-
NORTH COAST

CITY           SKY/WX    TMP DP  RH WIND       PRES   REMARKS
EDENTON        RAIN      42  36  80 N13G21    29.87R
ELIZABETH CITY CLOUDY    43  35  73 N21G32    29.86S
KITTY HAWK     DRIZZLE   46  41  82 N12G23    29.79S
MANTEO         LGT RAIN  46  44  92 NE21G28   29.80S

$$

NCZ045>047-081-094-103-104-072000-
CENTRAL COAST

CITY           SKY/WX    TMP DP  RH WIND       PRES   REMARKS
FRISCO         RAIN      48  46  93 NE16G26   29.69F FOG
SWANQUARTER    NOT AVBL

$$

NCZ095-097-098-100-101-072000-
SOUTHERN COAST

CITY           SKY/WX    TMP DP  RH WIND       PRES   REMARKS
BEAUFORT       LGT RAIN  42  39  89 N26G47    29.63F
CEDAR ISLAND   NOT AVBL
JACKSONVILLE   RAIN      36  32  85 N24G36    29.75F
PINEY ISLAND   LGT SNOW N/A N/A N/A N31G47    29.66F
WILMINGTON     RAIN      36  32  85 N22G36    29.75F FOG


$$

NCZ011>013-027>030-043-044-078>080-089-090>093-098-072000-
COASTAL PLAIN

CITY           SKY/WX    TMP DP  RH WIND       PRES   REMARKS
AHOSKIE        CLOUDY    39  26  58 N15G23    29.92F
CLINTON        MIX PCPN  35  32  90 N13G21    29.90F
ELIZABETHTOWN  RAIN      35  33  94 N6        29.88F
GOLDSBORO      CLOUDY    36  36 100 N15G24    29.86F
GREENVILLE     LGT RAIN  36  32  87 N10       29.91F
HAVELOCK       LGT RAIN  39  36  89 N28G36    29.71F
KENANSVILLE    MIX PCPN  34  32  92 N15G22    29.87F
KINSTON        LGT SNOW  36  32  87 N16G24    29.85F
NEW BERN       RAIN      37  33  85 N18G29    29.77F
RICHLANDS      CLOUDY    36  28  75 NW17G24   29.80F
ROCKY MOUNT    LGT RAIN  37  28  70 N13       29.91F
WASHINGTON     RAIN      36  32  87 N13       29.84F
WHITEVILLE     RAIN      35  33  92 N10G21    29.85F

$$

AMZ130-135-150-152-154-156-158-170-250-252-270-ANZ085-086-088-633-658-670-072000-
MARINE OBSERVATIONS

STATION/POSITION TIME  TEMP    WIND        PRES    WAVE   SWELL
                       AIR SEA DIR/SP/G            HT/PER HT/PER
                 (UTC) (F)     (DEG/KT/KT) (MB)    (FT/S) (FT/S)
CHESAPEAKE LIGHT 1900   44      20/ 31/ 36 1011.5
64 E VA BEACH    1850   52 53   40/ 29/ 35 1007.6   10/ 7   2/11
DUCK             1800   46 44   20/ 33/ 41 1008.5
2 E DUCK         1811      44                N/A     8/ 7   2/11
OREGON INLET     1800   47 45   10/ 22/ 30 1007.5
13E OREGON INLT  1900      47                N/A    11/ 7   3/11
HATTERAS CG      1800   47 47   20/ 26/ 35 1005.5
DIAMOND BUOY     1850   57 70   30/ 33/ 41 1002.6   13/ 8   2/16
CAPE LOOKOUT     NOT AVBL
BEAUFORT LAB     1800   43 48   10/ 28/ 36 1004.7
30 SE NEW RVR IN 1808   44 63               999.3
30 SE NEW RVR IN 1825      63                N/A    14/ 8   3/11
27 SE WRIGHTSVLE 1808   46     360/ 39     1001.0
5 SE WRIGHTSVLE  NOT AVBL
225 S CAPE HAT   1850   66 69  200/ 27/ 37   N/A    10/ 7
41 SE CHARLESTON 1850   46 66  320/ 31/ 39 1006.7   10/ 6   5/10

$$



USA.gov is the U.S. government's official web portal to all federal, state and local government web resources and services.